Flag for Switzerland Weather past 2 weeks in Reinach, Basel-Land, Switzerland

Now
64 °F

Overcast.


Feels Like: 64 °F
Forecast: 59 / 76 °F
Wind: 6 mph from North

Location: Bale-Mulhouse

Current Time: Jul 31, 2015 at 12:16:17 PM

Latest Report: Jul 31, 2015 at 11:00 AM


Visibility: 25 mi

Pressure: 30.03 "Hg

Humidity: 55%

Dew point: 47 °F

Location of ReinachLocation

Historic Weather in Reinach — Graph

°F

Reinach temperature yesterday

Maximum temperature yesterday: 74 °F (at 4:00 PM)
Minimum temperature yesterday: 48 °F (at 6:00 AM)
Average temperature yesterday: 62 °F

Past Weeks' High & Low Weather Summary

 TemperatureHumidityPressure
High97 °F (Jul 17, 3:00 PM)98% (Jul 30, 4:00 AM)30.14 "Hg (Jul 30, 4:00 AM)
Low46 °F (Jul 31, 6:00 AM)22% (Jul 17, 5:00 PM)29.65 "Hg (Jul 24, 7:00 PM)
Average71 °F64%29.94 "Hg
* Reported Jul 16 11:00 AM — Jul 31 11:00 AM, Reinach, Weather by CustomWeather, © 2015

Note: Actual official high and low records may vary slightly from our data, if they occured in-between our weather recording intervals... More about our weather records

Advertising

Reinach weather history for previous 24 hours

 ConditionsComfort  
Time TempWeatherWind HumidityBarometerVisibility
11:00 AM
Fri, Jul 31
64 °FOvercast.6 mph55%30.03 "Hg25 mi
10:00 AM60 °FPartly sunny.6 mph59%30.05 "Hg25 mi
9:00 AM57 °FCool.6 mph70%30.07 "Hg28 mi
8:00 AM52 °FPassing clouds.5 mph86%30.09 "Hg25 mi
7:00 AM47 °FPassing clouds.2 mph93%30.09 "Hg25 mi
6:00 AM46 °FPassing clouds.2 mph93%30.10 "Hg25 mi
4:00 AM49 °FPassing clouds.6 mph86%30.09 "Hg19 mi
3:00 AM51 °FCool.6 mph83%30.09 "Hg37 mi
2:00 AM52 °FCool.5 mph81%30.09 "Hg37 mi
1:00 AM53 °FCool.6 mph75%30.09 "Hg37 mi
12:00 AM57 °FPassing clouds.8 mph67%30.08 "Hg19 mi
10:00 PM
Thu, Jul 30
57 °FPassing clouds.3 mph74%30.05 "Hg19 mi
9:00 PM63 °FScattered clouds.5 mph53%30.02 "Hg25 mi
8:00 PM69 °FScattered clouds.3 mph44%29.99 "Hg25 mi
7:00 PM72 °FPartly sunny.8 mph33%29.97 "Hg31 mi
6:00 PM72 °FScattered clouds.9 mph32%29.97 "Hg31 mi
5:00 PM73 °FScattered clouds.7 mph33%29.97 "Hg31 mi
4:00 PM74 °FScattered clouds.6 mph34%29.97 "Hg31 mi
3:00 PM72 °FPartly sunny.9 mph33%29.98 "Hg31 mi
2:00 PM70 °FPartly sunny.8 mph33%29.99 "Hg31 mi
1:00 PM70 °FPartly sunny.6 mph35%30.00 "Hg31 mi
12:00 PM69 °FPartly sunny.6 mph37%30.00 "Hg31 mi
Weather by CustomWeather, © 2015

See weather overviewHow to use our weather pages